[[{"header":{"parameterUnit":"m.s-1","parameterCategory":1,"la1":30.2991,"la2":30.254,"lo1":-89.0895,"lo2":-89.0444,"dy":0.0017,"dx":0.0017,"nx":28,"ny":28,"refTime":"2025-03-22T21:00:00:Z","depth":0,"parameterNumber":2,"parameterNumberName":"U-component_of_WINDS"},"data":[0,0,0,0,0,0,0,0,0,0,0,0,0,0,0,0,0,0,0,0,0,0,0,0,0,0,0,0,0,0,0,0,0,0,0,0,0,0,0,0,0,0,0,0,0,0,0,0,0,0,0,0,0,0,0,0,0,0,1.1877,1.1877,0,1.1866,1.1866,1.1866,1.1855,1.1854,1.1854,1.1854,1.1843,1.1843,1.1843,0,0,0,0,0,0,0,0,0,0,0,0,0,1.1891,1.1891,1.1877,1.1877,1.1877,1.1866,1.1866,1.1865,1.1855,1.1854,1.1854,1.1854,1.1844,1.1843,1.1843,0,0,0,0,0,0,0,0,0,0,0,0,0,1.1883,1.1891,1.1877,1.187,1.1869,1.1866,1.1866,1.1865,1.1855,1.1854,1.1854,1.1854,1.1844,1.1843,1.1843,1.1846,0,0,1.1842,1.1842,0,0,0,0,0,0,0,0,1.1883,1.1882,1.1871,1.187,1.187,1.1861,1.1867,1.1859,1.1855,1.186,1.1854,1.1854,1.185,1.1849,1.1847,1.1846,1.1845,1.1842,1.1842,1.1842,1.1842,0,0,0,0,0,0,0,1.1884,1.1883,1.1873,1.1871,1.187,1.1868,1.1867,1.1865,1.1856,1.186,1.1859,1.1858,1.1849,1.1848,1.1847,1.1845,1.1842,1.1842,1.1842,1.1842,1.1847,1.1847,0,0,0,0,0,0,1.1885,1.1883,1.1873,1.1872,1.1876,1.1868,1.1866,1.1864,1.1856,1.1855,1.1858,1.1857,1.1848,1.1847,1.1847,1.185,1.1842,1.1842,1.1842,1.1847,1.1847,1.1847,0,0,0,0,0,0,1.1886,1.1884,1.1873,1.1878,1.1876,1.1868,1.1866,1.1864,1.1862,1.1855,1.1853,1.1858,1.1848,1.1847,1.1847,1.185,1.1842,1.1842,1.1846,1.1847,1.1847,1.1858,0,0,0,0,0,0,1.1886,1.1885,1.1885,1.1878,1.1876,1.1873,1.1866,1.1864,1.1862,1.1861,1.1854,1.1853,1.1848,1.1847,1.1846,1.1849,1.1842,1.1846,1.1847,1.1847,1.1857,1.1858,1.186,0,0,0,0,0,1.1887,1.1888,1.1885,1.1884,1.1876,1.1873,1.1872,1.1866,1.1862,1.1863,1.1859,1.1853,1.185,1.1847,1.1846,1.1849,1.1846,1.1846,1.1847,1.1856,1.1858,1.186,0,0,0,0,0,0,1.1896,1.1887,1.1883,1.1883,1.1879,1.1871,1.1872,1.1868,1.1865,1.1864,1.1856,1.1855,1.1856,1.1853,1.185,1.1853,1.1847,1.1848,1.1855,1.1856,1.1857,1.1858,1.1841,0,0,0,0,0,1.1898,1.1896,1.1889,1.1889,1.1887,1.188,1.1879,1.1874,1.187,1.1868,1.1863,1.186,1.1858,1.1857,1.1855,1.1857,1.1856,1.1859,1.186,1.1861,1.1861,1.1863,1.1865,1.1849,1.1849,1.1849,0,0,1.1903,1.1897,1.1897,1.1891,1.1887,1.1886,1.1879,1.1877,1.1877,1.1868,1.1867,1.1864,1.186,1.1861,1.1861,1.1858,1.1866,1.1862,1.1863,1.1862,1.1864,1.1866,1.1867,1.185,1.185,1.185,0,0,1.191,1.1905,1.1905,1.1902,1.1897,1.1893,1.1893,1.1886,1.1884,1.1883,1.1877,1.1876,1.1873,1.1871,1.1869,1.1877,1.1872,1.1877,1.1883,1.1885,1.1886,1.1887,1.1891,1.1892,1.1877,1.1877,1.1877,0,1.1916,1.1913,1.1906,1.1906,1.1904,1.1896,1.1897,1.1894,1.1889,1.1888,1.1885,1.1881,1.1878,1.1879,1.1881,1.188,1.188,1.1877,1.1887,1.1888,1.1889,1.1892,1.1893,1.1878,1.1878,1.1878,1.1877,0,1.1921,1.1919,1.192,1.1915,1.1914,1.1914,1.1908,1.1907,1.1903,1.1899,1.19,1.1895,1.1893,1.1893,1.1889,1.1894,1.1892,1.1888,1.1882,1.1891,1.1894,1.1895,1.1878,1.1878,1.1878,1.1878,0,0,1.1933,1.1925,1.1926,1.1924,1.1918,1.1917,1.1918,1.1915,1.1915,1.1912,1.1913,1.1911,1.1907,1.1905,1.1901,1.1903,1.1911,1.1899,1.1899,1.1902,1.1917,1.192,1.1922,1.1908,1.1908,1.1908,1.1918,0,1.1939,1.1939,1.1933,1.1935,1.1934,1.1928,1.1928,1.1925,1.1922,1.1922,1.1918,1.1917,1.1912,1.1911,1.1913,1.1909,1.1914,1.1909,1.1909,1.1909,1.191,1.1923,1.1926,1.1935,1.1919,1.1919,1.1919,0,1.1946,1.1944,1.1945,1.1941,1.194,1.1941,1.1939,1.1938,1.1935,1.1933,1.1932,1.1927,1.1928,1.1923,1.1925,1.1922,1.1922,1.192,1.192,1.192,1.1914,1.1924,1.1938,1.1939,1.1921,1.192,1.192,0,1.1955,1.1952,1.1953,1.1952,1.1947,1.1947,1.1945,1.1942,1.1942,1.194,1.194,1.1939,1.1938,1.1938,1.1933,1.193,1.1936,1.193,1.1935,1.1935,1.1936,1.1936,1.1951,1.1936,1.1936,1.1936,1.1936,0,1.1962,1.1964,1.1957,1.1958,1.1959,1.1954,1.1956,1.1954,1.1951,1.1952,1.1946,1.1947,1.1942,1.1942,1.1939,1.1941,1.1941,1.194,1.1939,1.194,1.194,1.194,1.1939,1.1936,1.1936,1.1936,1.1936,0,1.1972,1.1968,1.1969,1.1964,1.1963,1.1965,1.1961,1.1962,1.1959,1.196,1.196,1.1956,1.1956,1.1952,1.1951,1.1949,1.1954,1.1951,1.1954,1.1954,1.1959,1.1958,1.1974,1.1976,1.1959,1.196,1.196,0,1.1977,1.1978,1.1974,1.1974,1.1973,1.1973,1.1972,1.1968,1.1967,1.1965,1.1967,1.1967,1.1966,1.1967,1.1964,1.1964,1.1962,1.1968,1.1962,1.1964,1.1963,1.1963,1.1964,1.1969,1.1969,1.1969,1.1969,0,1.1987,1.1985,1.1984,1.1984,1.1983,1.1982,1.1981,1.1982,1.1977,1.1977,1.1977,1.1977,1.1977,1.1978,1.1977,1.1976,1.1972,1.1971,1.1972,1.1974,1.1976,1.1975,1.1958,1.1971,1.1971,1.1971,1.1971,1.197,1.1995,1.1996,1.1994,1.1993,1.1992,1.1992,1.1992,1.199,1.199,1.199,1.1987,1.1989,1.1987,1.1987,1.1986,1.1987,1.1985,1.1986,1.1986,1.1987,1.1988,1.1976,1.1987,1.1987,1.1987,1.1987,1.1987,0,1.2004,1.2003,1.2003,1.2002,1.2002,1.1999,1.1998,1.1998,1.1999,1.1999,1.1999,1.2,1.2001,1.1998,1.1999,1.2001,1.1999,1.2001,1.2001,1.2001,1.199,1.1989,1.2002,1.2002,1.2002,1.2002,1.2002,1.2002,1.2009,1.2011,1.201,1.2011,1.201,1.2011,1.2011,1.2011,1.201,1.2012,1.2012,1.2011,1.201,1.2011,1.2012,1.2011,1.2012,1.2014,1.2013,1.2003,1.2001,1.2,1.1999,1.2015,1.2015,1.2024,1.2024,1.2024]},{"header":{"parameterUnit":"m.s-1","parameterCategory":1,"la1":30.2991,"la2":30.254,"lo1":-89.0895,"lo2":-89.0444,"dy":0.0017,"dx":0.0017,"nx":28,"ny":28,"refTime":"2025-03-22T21:00:00:Z","depth":0,"parameterNumber":3,"parameterNumberName":"V-component_of_WINDS"},"data":[0,0,0,0,0,0,0,0,0,0,0,0,0,0,0,0,0,0,0,0,0,0,0,0,0,0,0,0,0,0,0,0,0,0,0,0,0,0,0,0,0,0,0,0,0,0,0,0,0,0,0,0,0,0,0,0,0,0,3.074,3.0741,0,3.0815,3.0816,3.0817,3.0812,3.0811,3.081,3.0809,3.0883,3.0886,3.0889,0,0,0,0,0,0,0,0,0,0,0,0,0,3.059,3.0593,3.074,3.0741,3.0742,3.0815,3.0816,3.0817,3.0812,3.0811,3.0809,3.0808,3.0882,3.0886,3.0889,0,0,0,0,0,0,0,0,0,0,0,0,0,3.0659,3.0594,3.074,3.0748,3.075,3.0815,3.0816,3.0817,3.0812,3.0811,3.0809,3.0808,3.0881,3.0885,3.089,3.095,0,0,3.0903,3.0905,0,0,0,0,0,0,0,0,3.0655,3.0664,3.0746,3.0748,3.075,3.0802,3.079,3.0862,3.0813,3.0788,3.0809,3.0807,3.0857,3.0864,3.0881,3.0954,3.0957,3.0904,3.0907,3.0909,3.091,0,0,0,0,0,0,0,3.065,3.0661,3.0769,3.0747,3.0749,3.0747,3.0755,3.0804,3.0831,3.079,3.079,3.0799,3.0858,3.0877,3.0883,3.0958,3.0904,3.0908,3.0911,3.0912,3.1084,3.1086,0,0,0,0,0,0,3.0644,3.0657,3.0767,3.0772,3.0697,3.0752,3.076,3.0787,3.0831,3.0836,3.0801,3.0799,3.087,3.0878,3.0886,3.096,3.0908,3.0913,3.0915,3.1082,3.1084,3.1086,0,0,0,0,0,0,3.0641,3.0654,3.0764,3.0714,3.0728,3.0756,3.0786,3.0789,3.0808,3.0838,3.0843,3.0815,3.0869,3.0879,3.0934,3.0962,3.0915,3.0919,3.108,3.1083,3.1085,3.1109,0,0,0,0,0,0,3.0636,3.0653,3.0676,3.0715,3.0731,3.0812,3.0787,3.0792,3.0816,3.0815,3.0853,3.0858,3.0869,3.0928,3.0939,3.0968,3.0922,3.1078,3.1081,3.1085,3.1106,3.1112,3.1117,0,0,0,0,0,3.0631,3.0679,3.0678,3.0691,3.0761,3.0814,3.0823,3.0835,3.0819,3.0843,3.0862,3.0857,3.0957,3.0933,3.0946,3.0977,3.1076,3.108,3.1084,3.1103,3.1111,3.1117,0,0,0,0,0,0,3.0642,3.0684,3.0683,3.0745,3.0776,3.0813,3.0844,3.0843,3.0878,3.0875,3.0887,3.0896,3.0952,3.0969,3.0942,3.1038,3.1014,3.1021,3.1024,3.1032,3.1038,3.1033,3.0926,0,0,0,0,0,3.0652,3.0692,3.0726,3.0778,3.0793,3.0816,3.0839,3.0846,3.0878,3.0891,3.0914,3.0945,3.0983,3.1008,3.1045,3.1108,3.1116,3.1135,3.1141,3.1145,3.1152,3.1186,3.1195,3.11,3.11,3.11,0,0,3.0672,3.07,3.0725,3.0781,3.0806,3.0846,3.0827,3.087,3.09,3.0897,3.0951,3.0969,3.1004,3.1063,3.1091,3.108,3.1179,3.1151,3.1154,3.1158,3.1192,3.1201,3.1209,3.1103,3.1103,3.1102,0,0,3.0731,3.0756,3.0802,3.0827,3.0865,3.088,3.0891,3.0928,3.0941,3.0995,3.0994,3.1029,3.1095,3.112,3.1142,3.121,3.1207,3.1221,3.1253,3.1286,3.1294,3.1301,3.1326,3.1334,3.1227,3.1227,3.1227,0,3.0751,3.0813,3.0826,3.087,3.0895,3.0894,3.0941,3.0965,3.1012,3.1029,3.1016,3.11,3.1123,3.1189,3.1205,3.1222,3.1235,3.1217,3.1292,3.1299,3.1305,3.1329,3.1338,3.1229,3.1229,3.1228,3.1228,0,3.0837,3.088,3.0912,3.096,3.0988,3.1033,3.1052,3.1079,3.1083,3.1099,3.1154,3.1182,3.1225,3.1241,3.1245,3.1307,3.13,3.1289,3.1266,3.1316,3.1338,3.1348,3.1231,3.123,3.123,3.123,0,0,3.0905,3.0959,3.0971,3.0993,3.1035,3.1068,3.1112,3.1156,3.1179,3.1211,3.1249,3.1305,3.1296,3.1321,3.1327,3.1357,3.141,3.1343,3.1344,3.1355,3.1481,3.1489,3.15,3.1408,3.1409,3.1411,3.1478,0,3.0968,3.1049,3.1062,3.1133,3.1173,3.1173,3.1212,3.1242,3.1257,3.1293,3.131,3.135,3.1334,3.1349,3.1378,3.1397,3.1436,3.1392,3.1443,3.1445,3.1436,3.1512,3.1521,3.1583,3.1487,3.1489,3.149,0,3.1053,3.109,3.1165,3.1202,3.1219,3.1255,3.1295,3.1329,3.1363,3.1372,3.14,3.1403,3.1449,3.1423,3.1487,3.1457,3.1479,3.1491,3.1494,3.15,3.1471,3.152,3.1603,3.1613,3.1504,3.1503,3.1502,0,3.1096,3.1164,3.1218,3.1237,3.1281,3.1306,3.1325,3.1357,3.1382,3.1418,3.1434,3.1474,3.1495,3.1526,3.1539,3.1519,3.1602,3.1578,3.1611,3.1611,3.163,3.1628,3.1718,3.1642,3.1641,3.1641,3.1641,0,3.1166,3.1213,3.1238,3.1272,3.1324,3.1337,3.1388,3.1406,3.1435,3.1471,3.1473,3.1507,3.1522,3.1558,3.1569,3.162,3.163,3.1638,3.1641,3.1639,3.1638,3.1654,3.165,3.1644,3.1643,3.1643,3.1642,0,3.1224,3.1243,3.1302,3.134,3.135,3.1387,3.1418,3.145,3.1466,3.1512,3.1524,3.1548,3.1591,3.1607,3.1658,3.1666,3.1725,3.1724,3.1715,3.1716,3.1749,3.1746,3.1852,3.1867,3.178,3.1781,3.1781,0,3.1268,3.1304,3.1346,3.1371,3.1391,3.1432,3.1458,3.1472,3.1499,3.154,3.1567,3.161,3.1645,3.1713,3.1735,3.1775,3.1775,3.1809,3.178,3.1778,3.1776,3.1774,3.1778,3.1815,3.1815,3.1816,3.1817,0,3.1344,3.1352,3.139,3.1432,3.1464,3.1497,3.1529,3.1549,3.1568,3.1598,3.1643,3.167,3.1724,3.1766,3.1807,3.1826,3.1825,3.1825,3.1836,3.1835,3.1828,3.1833,3.173,3.1823,3.1823,3.1822,3.1822,3.1821,3.1397,3.143,3.1464,3.1507,3.1533,3.1563,3.1596,3.1615,3.1653,3.1699,3.1704,3.1752,3.1784,3.1839,3.186,3.1897,3.1888,3.1902,3.1906,3.1909,3.1912,3.1822,3.1904,3.1904,3.1904,3.1904,3.1904,0,3.1475,3.1497,3.1536,3.1582,3.1616,3.1612,3.1648,3.1676,3.1718,3.1749,3.1784,3.1835,3.1876,3.1901,3.1942,3.1967,3.1968,3.1978,3.1977,3.1981,3.1918,3.1905,3.1977,3.1977,3.1977,3.1977,3.1977,3.1977,3.1519,3.1574,3.1586,3.1653,3.1675,3.1723,3.1744,3.1771,3.1796,3.1854,3.1888,3.1905,3.1933,3.1976,3.2014,3.202,3.2036,3.2047,3.2052,3.1993,3.1985,3.1978,3.1967,3.205,3.205,3.2113,3.2113,3.2114]}]]